RH
1 1 1 1 1 1 1 1 1 1 1 1 1 1 2 4 6 4 3 3 2 5 10 11 12 15 16 19 21 23 25 28 33 37 39 36 34 33 34 35 35 36 38 39 36 39 35 31 43 45 46 62 74 70 62 58 60 60 58 56 49 42 35 30 25 21 19 16 15 13 12 11 10 10 9 9 9 11 13 15 14 13 11 9 9 11 14 16 19 25 32 34 34 36 41 38 28
2 1 1 1 1 1 1 1 1 1 1 2 1 3 3 4 6 4 3 3 3 5 11 15 15 18 18 18 20 26 33 34 37 40 41 40 39 37 38 37 39 42 44 37 29 52 61 38 39 46 48 66 78 71 62 60 63 63 61 57 49 42 35 31 26 21 19 16 15 13 12 11 10 9 9 8 8 9 12 15 15 14 13 11 10 12 16 18 19 25 32 37 38 39 43 43 35
2 2 2 2 2 2 2 1 2 2 1 2 2 3 4 5 5 4 4 3 4 5 11 18 18 20 20 21 22 32 44 46 46 44 42 41 39 39 41 42 45 45 44 37 28 49 75 68 52 45 53 69 80 79 69 63 66 68 65 57 48 42 37 32 27 22 20 17 15 13 12 11 10 9 8 8 8 8 10 13 15 14 14 13 12 13 17 20 22 26 32 40 44 41 43 47 43
2 2 2 2 2 2 2 2 2 2 2 2 3 4 5 6 6 5 4 4 5 6 11 16 20 22 22 27 30 36 45 47 49 50 48 44 40 40 43 45 45 44 43 35 26 29 40 67 81 63 58 71 81 86 80 72 71 72 66 56 49 43 38 33 27 23 20 17 15 13 12 11 10 9 8 8 8 8 9 12 14 14 14 14 14 14 17 22 25 28 33 41 48 46 44 49 50
2 2 2 2 2 2 2 2 2 2 2 2 4 5 7 7 8 6 3 4 4 6 10 14 21 24 24 29 30 32 33 33 34 37 40 39 37 37 37 35 31 39 54 45 23 17 20 54 95 86 68 76 88 93 89 81 76 74 65 56 51 45 38 32 27 23 19 17 15 13 12 12 10 9 8 7 8 8 9 10 12 13 14 14 15 16 18 23 28 32 35 41 49 52 50 50 51
2 2 2 2 2 2 2 2 2 2 2 3 4 6 8 8 11 9 4 5 4 6 9 13 20 24 27 28 28 27 27 27 25 25 26 27 27 27 27 25 21 23 46 63 45 27 32 61 95 95 81 78 86 99 96 86 79 73 65 58 53 45 38 33 27 22 19 17 15 14 12 12 10 9 9 7 7 8 9 9 10 12 13 14 16 18 19 24 31 36 38 43 49 54 57 55 53
2 2 2 2 2 2 2 2 2 3 3 3 5 7 8 9 13 10 5 5 5 7 9 13 17 23 30 30 31 31 29 29 26 24 23 22 22 21 22 19 21 18 23 45 57 50 42 62 90 97 93 81 81 98 97 86 81 74 67 61 54 46 39 33 28 23 20 19 16 15 14 12 11 9 9 7 7 8 8 8 9 10 12 14 15 17 19 23 34 42 42 44 50 55 59 61 59
2 2 2 2 2 2 2 2 2 3 4 4 7 9 10 11 12 12 8 5 7 7 7 12 13 23 31 31 38 41 39 37 30 27 24 21 20 19 20 20 23 27 25 22 41 59 45 48 76 93 101 93 87 97 97 89 83 76 69 62 55 47 40 35 29 26 23 21 18 17 15 12 11 10 9 8 8 8 9 9 9 10 11 12 15 17 18 22 32 44 46 43 51 57 60 64 66
2 2 2 2 2 2 2 2 3 4 4 4 7 9 11 12 11 13 9 6 10 8 8 10 12 23 31 31 41 45 46 47 44 43 38 29 23 22 24 27 28 26 24 19 32 57 60 57 65 81 98 100 97 99 97 92 84 76 71 64 58 50 43 38 32 29 25 22 19 17 15 12 12 12 10 10 10 10 11 11 11 11 11 11 14 17 17 19 25 37 44 41 47 59 62 67 70
3 3 2 3 2 3 3 3 4 4 4 5 8 8 11 13 13 15 10 8 14 13 11 12 13 21 28 30 39 43 45 47 48 51 51 45 37 34 34 31 31 27 18 18 27 41 60 74 76 83 96 99 99 101 98 93 85 77 73 67 60 54 47 41 35 30 26 22 19 17 15 14 14 13 13 14 14 14 14 13 13 12 11 11 13 17 17 17 19 27 37 38 40 55 65 71 75
3 3 3 3 3 3 3 3 4 4 4 4 7 8 13 16 15 17 13 11 16 18 16 17 19 22 30 35 38 42 43 43 43 43 43 44 41 38 39 34 29 28 21 17 19 26 43 65 83 95 99 100 99 99 100 93 84 78 74 69 62 55 49 43 37 31 27 24 22 21 19 18 17 17 17 18 18 19 20 19 18 15 12 10 12 16 18 16 15 18 26 29 29 43 58 70 79
3 3 3 3 3 3 3 5 5 5 5 4 7 9 14 19 18 20 21 18 19 23 23 22 24 24 32 38 38 40 40 40 39 38 37 35 33 28 27 27 25 25 23 19 17 22 36 59 87 100 98 98 100 100 99 92 82 78 74 69 62 57 51 43 38 32 29 27 25 24 23 21 20 20 20 21 22 23 24 25 25 23 19 12 10 15 18 16 13 12 14 17 17 25 40 56 71
4 3 3 4 3 4 5 6 5 6 6 4 8 9 12 19 22 24 26 25 23 28 33 31 30 28 32 35 34 36 37 38 37 37 38 33 26 24 22 18 19 23 20 19 21 20 29 57 78 89 99 99 99 100 97 91 82 78 73 67 63 57 49 41 37 34 32 29 27 25 23 22 21 20 21 21 23 24 24 25 27 29 28 22 14 14 18 17 13 10 8 8 8 11 20 34 50
4 4 4 5 4 5 6 6 6 6 6 4 7 9 12 19 22 22 23 25 26 30 38 36 35 36 35 37 37 38 39 40 39 36 33 32 29 29 29 19 14 22 20 18 30 30 33 65 78 82 100 99 96 99 94 89 83 79 73 67 63 54 46 41 38 36 32 30 28 26 25 24 23 22 21 22 22 21 21 22 25 29 31 30 24 18 17 18 15 11 8 7 6 6 8 15 27
4 5 4 6 6 7 8 8 7 6 7 6 5 7 12 18 22 25 22 23 27 31 38 39 38 40 41 42 43 42 42 40 37 36 33 33 34 33 31 19 14 25 28 25 31 29 32 69 93 92 98 96 96 98 93 88 84 81 74 66 59 51 46 42 39 36 33 31 30 28 28 26 26 25 23 23 22 20 19 18 22 27 30 32 31 25 20 19 18 13 10 8 7 6 6 7 12
4 5 5 7 7 8 10 8 8 8 9 9 6 6 11 17 23 30 28 25 29 33 38 41 41 43 44 44 43 41 39 39 38 38 38 36 35 36 32 19 14 24 31 32 28 26 43 76 94 92 91 95 99 97 92 88 86 81 71 61 54 50 48 44 42 40 36 33 30 28 27 26 26 25 24 23 22 20 18 17 18 23 29 32 32 29 23 21 20 17 14 12 10 7 7 6 7
5 6 6 8 8 9 10 9 9 9 13 15 10 8 12 19 25 33 34 32 36 38 40 43 44 43 44 42 41 42 40 40 41 39 38 38 36 33 30 18 14 25 34 37 28 26 50 72 83 93 97 99 100 95 92 88 83 74 63 57 54 54 51 48 44 39 35 30 27 25 23 24 25 26 25 25 25 23 20 18 16 19 27 33 35 32 27 25 23 20 17 14 12 10 8 8 8
6 7 8 9 10 10 10 10 10 10 18 22 17 12 15 25 29 31 35 40 40 40 41 44 45 43 44 44 42 43 42 41 39 37 32 28 26 24 25 19 15 23 30 37 40 42 50 51 61 87 94 91 88 84 82 77 72 65 60 58 56 54 49 44 40 34 31 26 23 21 20 21 23 27 28 30 31 29 25 23 22 21 25 32 35 35 33 30 27 23 20 17 13 12 12 11 12
7 8 9 11 12 11 10 12 11 14 21 26 25 17 18 31 33 25 31 38 35 36 40 41 43 43 44 45 44 43 41 39 36 32 26 19 19 21 21 18 17 22 24 27 37 51 63 60 62 76 79 78 79 75 71 68 64 61 58 56 52 48 44 39 34 30 26 23 21 20 20 20 20 25 28 31 32 32 30 31 33 32 31 31 33 36 36 36 33 30 25 21 18 16 17 16 15
9 9 11 14 13 11 11 12 12 16 23 27 29 23 20 30 29 19 22 28 28 32 34 33 36 39 40 42 43 42 39 37 36 31 25 17 15 19 19 17 15 16 18 19 21 30 51 67 71 74 72 72 74 71 67 63 60 58 56 53 49 45 40 35 30 26 24 22 21 21 21 21 21 22 22 24 28 31 33 35 39 41 41 38 36 36 40 43 42 39 35 31 29 28 26 23 20
10 10 13 15 14 13 12 11 11 14 19 23 27 27 23 20 18 14 13 17 22 26 25 26 31 35 37 39 39 39 39 38 34 28 22 17 18 23 26 25 21 19 21 20 21 24 33 47 58 67 72 69 70 71 67 60 58 57 55 51 46 41 36 31 27 26 25 24 22 21 21 21 21 21 19 19 23 30 35 38 39 42 46 47 44 42 46 52 54 51 48 45 43 40 35 30 27
11 13 16 15 14 15 14 13 12 12 14 18 19 22 22 16 13 11 10 15 20 23 26 29 33 35 33 33 36 37 37 34 29 23 19 20 32 45 45 39 35 34 33 28 29 31 28 34 46 66 77 71 67 67 62 58 56 55 51 47 42 38 35 32 30 30 29 27 25 22 20 20 19 19 19 17 20 30 39 42 41 42 45 48 48 50 54 59 62 62 59 56 51 46 40 35 32
14 16 17 16 16 17 16 14 13 13 12 15 15 14 15 14 14 14 15 20 23 25 30 32 31 28 27 29 33 33 29 25 22 19 18 21 38 63 66 55 49 45 43 43 38 33 41 55 64 76 83 73 65 60 57 56 53 50 46 43 40 37 36 34 32 31 30 27 24 21 18 16 15 15 16 15 18 29 41 45 43 41 42 47 52 57 62 63 62 59 53 50 46 42 37 32 29
17 18 19 18 17 17 17 16 15 14 13 14 14 12 13 13 14 17 21 22 21 26 28 26 23 19 21 24 25 25 24 22 21 20 21 23 29 49 62 58 53 46 47 50 42 45 65 80 84 89 87 75 66 60 56 54 50 48 46 43 40 38 36 33 30 27 25 22 19 16 14 12 11 11 13 14 16 24 39 48 47 43 44 52 62 67 69 65 59 52 48 45 42 38 34 30 27
19 19 19 18 17 17 17 16 15 15 14 14 14 14 14 13 15 18 22 21 20 23 22 18 17 17 19 20 21 23 22 21 23 24 27 32 31 37 51 60 55 40 43 48 46 67 84 86 93 98 90 75 65 62 59 55 52 49 46 40 36 33 29 25 22 20 18 16 14 12 10 9 9 10 12 14 16 23 35 43 47 48 51 60 68 70 68 61 56 54 53 51 49 46 42 38 33
18 19 18 17 17 17 17 15 15 15 14 15 14 15 15 15 16 18 20 22 22 22 18 17 17 18 19 19 21 22 23 25 27 29 32 35 36 38 47 63 62 38 40 60 65 80 87 85 98 99 87 79 75 74 67 57 50 44 38 33 28 24 19 16 15 14 13 12 11 10 9 8 9 14 20 23 25 34 41 44 45 49 56 65 68 67 64 59 55 52 50 50 53 55 54 49 45
18 18 17 17 17 18 18 17 15 15 14 15 15 15 16 16 16 18 20 21 23 21 17 18 18 19 20 20 21 21 24 29 28 29 31 33 39 50 55 56 60 46 44 70 84 86 83 83 98 101 91 89 89 81 62 50 44 39 34 29 24 19 15 13 12 11 10 10 9 9 8 8 10 16 27 34 37 43 47 46 43 45 53 60 65 66 65 61 55 51 48 50 55 59 59 55 53
18 18 18 17 17 17 18 18 17 17 16 16 16 16 16 17 18 19 20 21 21 20 18 18 19 19 20 20 21 22 25 27 26 26 27 32 43 60 65 54 59 66 63 77 88 87 87 86 91 100 97 87 80 67 50 44 40 35 30 24 20 16 13 12 10 10 9 9 9 9 8 7 9 14 25 34 38 42 44 45 44 43 46 52 58 63 62 56 49 49 52 56 59 58 55 51 50
19 19 18 18 18 17 18 20 20 20 20 19 18 17 17 18 19 20 20 20 20 19 19 19 19 19 21 25 28 29 29 27 30 35 37 41 47 53 57 53 56 60 61 75 87 87 92 97 95 99 101 83 60 49 43 40 34 28 24 21 17 14 12 11 10 10 9 9 10 11 8 7 8 9 17 26 33 38 42 45 47 46 45 46 52 55 51 44 40 43 50 56 58 56 54 51 49
19 18 18 19 18 19 20 20 21 21 21 21 19 17 18 18 18 19 19 18 19 19 19 19 18 20 25 30 32 31 32 35 46 58 61 58 59 56 51 52 53 49 57 75 86 88 88 92 93 86 86 75 50 42 39 33 27 23 20 18 16 14 12 11 10 10 10 9 10 10 8 8 9 7 9 15 20 28 37 43 47 46 44 43 44 44 40 38 35 37 40 41 44 51 56 55 50
17 17 18 18 18 19 20 19 19 18 18 18 18 16 16 18 17 17 18 18 19 19 19 19 18 20 24 30 34 40 51 62 69 72 69 62 63 65 59 53 51 52 68 83 89 92 79 71 71 64 63 61 48 41 35 27 21 17 18 18 17 15 12 11 11 10 10 9 9 9 8 8 8 7 7 12 17 21 28 37 43 44 42 40 38 37 38 37 34 31 30 28 30 37 42 46 46
16 17 17 18 18 18 18 17 16 14 14 14 14 15 16 17 16 16 17 18 19 18 19 19 19 21 26 35 41 55 74 81 77 66 58 57 60 67 66 58 62 70 78 86 90 87 72 68 74 72 70 68 58 48 34 22 16 14 15 15 15 14 12 11 11 11 10 10 9 8 9 9 9 9 9 15 23 25 26 33 42 46 45 43 38 36 37 35 30 25 23 23 24 27 28 33 40
16 17 17 17 17 16 15 14 12 10 10 11 11 14 14 14 14 16 16 17 18 18 22 23 24 29 33 41 48 56 69 72 68 58 48 49 51 61 68 62 67 79 81 85 88 78 68 75 85 83 78 71 63 52 34 19 13 12 12 11 12 11 10 10 10 11 10 9 10 8 8 9 10 13 13 18 26 35 44 50 54 51 47 45 40 39 42 38 30 22 21 23 25 31 35 36 40
15 15 16 16 14 13 11 11 11 9 10 10 11 12 12 14 14 15 16 17 21 24 29 33 39 46 43 44 51 53 55 54 53 47 42 39 39 55 72 68 64 71 81 89 88 81 77 80 81 77 70 63 57 48 32 19 13 12 11 10 10 9 9 10 10 10 10 10 9 8 8 8 9 11 12 14 16 30 50 57 57 55 46 41 40 44 46 41 35 27 22 21 20 28 37 40 40
13 13 13 13 11 12 12 13 13 14 19 18 15 15 14 14 16 18 21 22 27 34 42 48 54 60 55 52 56 56 51 47 42 36 33 31 38 60 74 69 67 70 83 96 97 95 90 82 76 70 63 59 54 46 32 20 15 13 12 10 10 9 9 9 10 11 10 10 9 8 9 8 8 8 7 9 8 17 36 41 46 54 47 38 45 53 44 33 32 29 24 20 16 22 35 41 37
10 10 12 11 11 13 12 19 25 26 36 35 27 26 22 20 24 25 27 31 34 39 48 55 60 65 66 67 63 57 53 49 42 36 33 34 44 67 76 70 72 75 77 86 92 91 82 72 66 61 56 53 51 44 33 23 19 16 14 13 12 10 9 8 9 9 9 10 10 9 9 8 8 8 7 8 8 11 20 22 28 40 39 35 46 53 40 25 23 24 25 22 17 21 31 39 40
8 9 11 10 10 14 17 31 43 43 47 48 40 36 31 28 32 35 36 40 41 41 44 52 67 76 77 77 68 57 55 53 49 42 39 45 54 69 76 71 71 74 72 72 75 73 67 63 60 55 51 50 48 43 38 32 26 21 19 17 15 12 10 10 9 9 9 10 10 10 9 9 9 9 9 8 8 9 10 11 13 17 22 26 29 32 29 22 16 18 23 21 15 17 22 28 34
9 9 11 11 13 21 27 38 53 54 54 56 50 44 38 33 36 44 48 49 47 43 44 55 74 84 85 85 76 62 57 56 57 48 35 41 57 69 71 67 66 67 66 66 67 65 63 59 54 50 48 44 45 44 42 38 31 26 24 22 19 16 12 12 12 11 10 10 11 11 10 11 11 11 12 10 9 9 8 8 8 8 10 12 13 15 17 15 11 14 18 16 12 13 14 15 21
8 11 14 17 21 29 36 45 58 61 59 62 60 53 46 38 38 50 58 58 55 51 53 61 74 87 93 91 80 67 60 59 59 49 34 29 37 47 50 49 52 53 52 57 62 63 60 54 48 46 42 37 39 42 42 39 35 33 31 28 24 20 16 16 17 16 14 13 12 13 12 11 12 12 13 13 12 11 10 9 8 9 8 8 9 9 9 9 9 11 11 10 10 10 11 11 16
11 18 25 27 30 35 43 56 67 68 66 66 66 63 58 50 49 59 64 61 59 62 65 62 67 85 94 87 77 68 60 56 53 47 39 32 27 31 34 33 34 35 38 46 55 59 55 50 47 44 39 34 32 35 39 41 41 40 38 34 29 25 21 19 21 20 19 18 16 15 14 13 13 14 14 15 14 13 12 11 9 9 9 9 9 8 8 8 8 9 8 9 9 9 10 9 13
18 27 34 36 37 40 46 60 71 72 72 71 69 69 68 64 64 67 68 64 62 66 69 64 63 74 80 78 76 67 59 55 50 45 41 34 29 29 29 27 26 27 32 41 47 49 47 46 46 43 38 34 29 29 36 41 44 47 47 42 34 30 27 24 24 24 22 21 20 18 17 16 14 14 15 15 15 15 14 13 12 10 9 9 9 8 9 8 8 8 8 9 9 9 10 9 11
30 38 41 41 45 49 51 58 69 75 76 74 73 75 76 74 73 74 73 70 67 68 72 71 72 76 77 78 75 66 63 62 58 58 54 38 25 24 26 25 26 29 33 37 38 38 40 44 46 46 41 36 31 28 30 36 45 53 55 50 40 34 33 31 28 26 26 24 21 19 18 18 17 15 16 16 16 16 15 14 14 13 12 10 10 9 9 9 9 9 9 10 10 10 10 10 10
34 45 47 48 53 60 62 62 68 77 78 74 77 83 83 80 76 75 77 75 70 72 75 75 77 79 78 79 75 67 65 63 64 71 72 58 39 31 34 35 33 34 35 34 34 35 38 43 46 43 36 30 28 26 24 29 44 59 63 54 46 42 36 34 32 28 28 26 22 19 17 17 18 16 16 16 15 15 15 15 14 14 14 13 12 11 11 10 10 10 10 10 10 10 10 10 10
30 45 52 52 57 65 70 70 71 80 83 77 79 83 83 83 76 69 74 76 73 74 76 77 78 76 78 83 78 72 67 60 60 64 68 70 58 43 41 44 42 40 39 38 38 39 38 40 40 34 30 29 28 25 23 25 36 56 68 60 57 61 46 32 30 26 24 26 23 19 16 16 17 16 17 16 15 15 14 15 14 14 14 14 14 14 13 12 11 11 11 11 11 11 10 10 9
31 46 59 60 61 68 77 78 75 80 85 83 82 81 79 81 78 71 73 76 76 78 79 81 81 78 82 87 83 79 72 64 58 56 66 77 70 56 51 52 52 47 44 42 40 40 39 37 36 34 34 34 29 23 23 24 24 38 63 71 72 73 54 36 35 33 29 26 23 20 16 14 15 15 16 16 14 14 13 13 13 13 13 13 13 13 13 13 12 12 11 11 11 10 10 10 9
38 43 59 69 69 73 81 85 84 83 87 89 90 89 85 81 78 74 74 77 79 80 80 80 78 79 83 85 86 81 75 72 63 58 75 89 82 74 67 60 59 53 47 45 41 41 41 40 41 43 43 40 35 29 25 24 21 23 45 71 83 80 66 62 69 69 57 36 22 21 17 14 15 14 14 15 14 13 11 11 10 10 11 11 11 11 11 11 10 10 10 9 9 9 9 8 8
44 40 46 59 73 81 85 88 90 89 89 91 92 93 90 85 79 73 68 65 67 72 74 72 71 75 78 79 80 78 77 78 66 58 77 95 93 87 79 70 65 59 53 50 46 45 47 47 48 50 49 47 48 49 38 27 22 18 28 55 79 84 80 85 95 98 86 52 25 22 19 14 15 15 14 13 12 12 10 9 8 7 7 7 7 7 7 8 7 7 7 7 7 7 7 6 6
44 40 34 37 53 74 86 91 91 91 90 88 88 88 87 84 73 63 58 51 55 71 79 76 74 75 76 78 79 79 79 75 62 59 78 97 97 86 79 74 65 56 50 44 42 44 45 42 43 49 52 51 53 61 56 42 31 22 24 42 57 56 54 64 82 99 99 64 28 21 20 14 14 16 16 13 11 10 9 8 6 5 5 5 5 5 5 5 5 5 5 5 5 5 5 5 4
44 39 34 28 31 47 71 88 90 91 93 89 88 84 81 78 61 46 44 39 43 66 82 82 79 78 80 82 82 78 73 69 66 69 85 97 89 71 66 65 58 48 42 39 38 37 36 34 38 52 66 68 66 66 65 63 58 42 34 44 52 51 52 65 81 98 102 75 41 29 22 14 13 15 17 15 11 9 8 7 6 5 5 4 4 4 4 4 3 4 4 3 4 4 4 4 4
50 41 37 31 24 25 43 69 84 90 92 91 90 85 80 76 56 35 31 27 28 45 63 71 71 70 73 76 77 72 69 75 80 84 91 92 79 66 64 64 58 50 43 39 35 31 31 33 37 45 51 54 60 64 62 64 70 64 54 55 62 69 80 92 97 98 101 86 63 48 30 15 13 15 16 18 15 13 10 7 5 5 5 5 4 4 3 3 3 3 3 3 3 3 3 3 3
60 51 45 39 28 21 27 46 67 80 88 90 88 81 74 64 43 25 24 25 26 36 49 59 61 59 60 65 69 69 75 87 92 92 92 86 78 71 66 62 57 48 40 33 26 23 24 29 32 29 25 27 35 49 60 69 76 73 66 64 64 70 83 97 101 98 98 89 73 64 43 19 13 14 15 17 16 15 14 13 10 7 5 4 3 4 3 4 4 3 3 3 2 2 2 2 3
66 58 53 49 41 36 33 33 43 61 79 84 77 67 57 47 36 32 35 33 31 37 44 49 52 52 55 59 61 67 78 82 82 88 90 87 87 77 64 62 54 40 33 25 21 21 22 27 26 18 27 41 41 43 56 72 79 72 63 59 58 70 89 99 100 96 97 94 83 76 60 31 15 15 14 15 16 15 16 17 17 15 13 11 9 8 8 8 9 10 9 8 7 6 4 3 3
74 64 58 56 55 54 51 46 41 47 59 62 56 50 42 36 37 42 44 41 40 43 44 46 51 56 62 63 63 76 89 84 81 93 96 91 88 76 63 59 46 33 30 28 28 28 27 29 21 16 42 71 76 69 61 63 69 65 62 61 62 78 95 97 94 89 90 98 95 88 78 49 22 16 16 15 16 16 17 20 21 21 20 19 19 19 19 19 19 20 21 21 20 17 14 12 9
78 71 65 64 65 62 58 57 52 44 46 47 45 48 46 38 35 36 40 44 46 46 48 59 71 75 80 79 78 88 96 94 94 98 96 91 86 78 67 54 39 35 37 35 35 32 31 31 22 22 46 65 68 61 47 41 39 34 46 65 76 92 99 94 96 89 80 92 99 96 91 63 30 22 23 21 21 20 21 25 26 26 25 24 26 28 29 32 31 29 29 28 28 26 24 22 19
79 71 71 74 75 74 67 59 52 45 46 50 52 60 63 53 38 31 35 44 49 52 61 79 90 89 89 88 90 94 95 95 93 86 83 84 80 74 63 49 41 42 43 41 40 38 36 34 25 24 35 41 40 34 24 21 19 26 54 74 78 85 83 73 75 73 66 79 96 101 93 68 45 40 35 29 30 29 28 31 31 31 31 32 34 37 39 41 42 42 39 35 33 31 29 28 26
82 66 69 76 75 78 78 70 60 55 57 58 60 68 73 66 51 39 41 51 62 74 83 90 93 94 92 90 92 94 89 85 79 70 70 71 66 60 54 48 48 48 48 48 46 42 38 34 30 27 27 29 29 27 23 20 20 34 59 73 76 75 67 55 52 55 56 66 87 100 92 73 58 51 45 41 42 40 36 37 37 37 38 40 42 45 48 50 50 50 48 46 42 38 35 32 29
89 70 65 73 77 76 77 77 71 67 70 68 63 65 70 69 64 59 59 63 73 85 90 88 89 93 93 87 83 80 77 74 69 65 71 73 68 62 58 56 55 52 50 47 43 40 36 33 32 30 28 27 26 26 28 26 24 26 31 47 64 64 56 50 43 43 45 53 79 99 90 76 67 57 51 49 47 45 43 41 39 39 40 42 44 47 51 53 52 50 49 51 52 48 41 35 30
93 82 67 68 78 78 75 77 72 65 69 70 63 60 61 62 64 68 73 76 78 82 82 82 86 89 87 83 81 79 80 79 72 72 81 82 74 67 64 62 59 57 55 49 44 40 35 32 31 32 32 31 29 29 29 29 31 30 26 32 43 40 40 41 32 36 46 49 69 86 77 68 72 70 64 57 50 47 45 45 45 47 48 48 49 50 53 56 57 54 51 52 56 56 51 44 35
Wind_Speed
30 30 30 31 31 31 32 32 33 32 31 31 29 23 20 21 25 30 32 31 30 28 28 30 30 29 28 28 27 26 25 25 24 24 24 25 26 27 29 31 32 34 36 36 35 36 35 33 31 30 30 30 27 25 24 23 21 20 21 22 23 23 22 22 22 21 21 21 21 21 21 20 20 20 19 19 18 18 17 17 16 15 14 13 12 12 12 11 11 11 12 12 12 11 10 11 11
30 31 31 31 31 32 32 32 32 32 31 30 24 20 21 24 27 30 31 30 30 29 28 29 30 30 30 29 27 24 23 23 24 25 27 28 28 29 32 34 36 38 38 37 36 37 38 35 32 30 30 28 26 25 24 23 21 20 21 22 22 22 22 22 22 22 22 22 21 21 21 20 20 19 19 19 19 18 18 17 16 15 14 13 12 12 12 11 11 12 12 12 12 12 11 11 11
31 31 31 31 31 32 32 32 32 30 31 26 19 20 24 26 29 30 31 31 31 31 29 29 29 29 29 28 26 23 22 24 25 26 28 30 31 32 35 36 38 39 39 39 38 37 37 37 35 32 29 26 26 26 25 23 21 21 21 21 22 22 22 22 22 22 22 21 21 21 21 20 20 19 19 18 18 19 18 17 16 15 14 14 13 12 12 11 11 12 12 12 12 12 11 11 11
31 31 31 31 32 32 32 31 30 30 28 21 17 22 24 27 30 31 31 32 32 33 32 30 28 27 27 25 25 24 24 25 25 27 29 31 32 35 37 38 39 41 41 43 41 37 37 39 37 32 27 26 26 26 25 24 22 21 21 20 21 22 22 22 22 22 22 21 21 21 21 20 20 19 19 18 18 18 18 17 16 15 15 15 13 13 12 12 12 12 13 13 13 13 12 12 12
31 31 31 31 31 31 31 30 29 28 23 16 18 23 26 29 31 32 32 32 34 33 33 33 29 28 27 24 24 25 25 26 27 28 30 32 34 37 39 40 41 40 38 40 41 37 35 37 36 30 27 27 27 27 25 24 23 21 20 20 21 22 22 21 21 21 21 21 21 21 21 21 20 19 19 19 19 19 18 18 16 15 16 15 14 13 13 12 12 12 13 14 14 13 13 13 13
31 32 31 31 31 30 30 29 28 25 18 15 21 26 28 30 31 32 32 33 34 34 35 34 32 31 29 27 27 27 28 28 29 30 31 33 35 38 40 41 42 40 35 35 37 35 31 32 34 32 31 31 29 26 24 24 23 21 20 20 21 21 21 21 21 21 21 21 21 21 21 21 20 20 19 19 19 19 18 18 17 16 16 15 14 14 13 13 13 13 13 14 15 15 14 14 14
31 31 30 30 30 29 29 28 26 22 15 15 23 28 31 31 32 34 32 33 35 35 36 36 36 34 31 31 30 30 30 30 31 33 34 35 37 39 41 40 39 39 39 38 37 34 30 30 32 34 36 34 30 27 26 26 24 21 21 20 20 20 20 20 20 20 21 21 22 22 22 22 21 20 19 19 19 19 18 18 17 16 16 16 15 14 14 13 13 13 14 15 16 16 16 15 15
31 30 30 30 29 29 28 26 24 18 14 18 27 30 32 32 33 35 34 33 35 36 37 37 38 35 32 33 30 30 31 30 32 33 35 37 38 40 39 38 37 39 41 42 40 34 31 32 32 33 34 33 32 30 29 27 25 22 21 20 19 19 19 20 21 21 22 22 23 23 23 23 22 21 20 20 19 18 18 17 17 16 16 16 15 14 14 14 13 14 15 16 16 17 17 16 16
30 30 29 29 28 28 26 24 20 15 16 22 30 32 32 34 34 37 36 35 35 36 35 36 38 35 34 34 30 30 30 30 32 33 35 37 38 38 36 36 38 41 39 39 40 35 31 32 35 36 33 32 32 32 30 27 25 22 21 19 19 19 19 20 21 22 22 23 23 24 24 23 22 21 21 20 20 19 18 17 16 15 15 16 16 15 15 14 14 15 16 17 17 17 17 17 17
29 29 28 28 27 26 25 22 18 17 19 25 31 33 33 35 36 37 36 35 37 37 36 36 38 36 35 34 32 31 31 31 31 31 33 34 35 36 36 38 40 41 38 36 36 36 33 31 36 39 36 33 32 31 30 28 25 23 21 20 19 19 20 21 21 22 22 23 23 23 24 23 23 22 21 20 20 19 18 17 16 15 15 16 16 16 15 15 15 16 17 18 18 18 18 18 18
28 27 27 27 27 26 25 21 17 18 20 25 31 33 35 36 36 37 36 36 37 38 39 38 38 38 36 36 35 33 33 33 32 31 32 33 34 37 39 42 41 40 40 38 35 34 34 31 36 39 35 32 33 31 30 27 25 25 22 20 19 19 20 21 21 22 22 23 23 23 23 23 22 21 21 20 20 19 19 18 16 16 15 15 16 16 16 16 16 17 18 19 19 19 19 19 20
27 27 27 27 26 25 23 19 15 16 19 24 31 34 36 37 37 37 37 36 37 38 40 40 38 38 36 35 35 34 33 33 34 34 33 33 34 35 36 40 42 42 42 41 36 32 32 30 34 37 31 30 32 30 29 28 28 26 23 21 20 20 20 20 21 21 22 22 23 23 23 22 22 21 21 20 20 19 19 19 18 17 16 16 16 17 18 18 18 18 19 20 20 20 20 21 21
27 27 27 26 25 23 19 16 14 17 19 23 32 35 35 38 37 38 37 37 38 37 39 39 37 36 34 34 35 34 34 34 34 34 33 32 33 33 33 34 36 40 42 39 34 31 31 29 31 34 29 28 29 28 29 28 27 26 23 22 21 21 20 20 20 21 22 23 23 23 23 22 22 22 21 20 19 19 19 19 19 18 17 17 16 17 19 19 19 19 19 20 21 21 21 21 22
27 26 26 24 23 20 16 14 14 18 20 23 31 35 37 38 37 39 38 38 38 38 37 36 34 33 33 33 34 34 33 33 33 35 35 35 34 35 37 36 32 33 35 34 30 29 30 28 27 31 31 27 27 29 29 27 26 25 24 23 22 21 20 20 21 22 22 22 23 23 23 23 23 22 21 20 20 19 19 20 19 18 18 18 17 18 19 20 21 21 20 20 21 21 21 21 22
27 26 25 23 21 18 14 13 15 19 22 24 29 34 39 38 37 38 39 39 38 38 37 34 32 31 32 32 32 33 34 34 35 36 37 37 36 37 38 37 32 30 29 28 27 26 28 27 23 25 28 26 27 29 28 26 25 24 23 23 22 20 20 21 21 21 22 22 23 24 24 24 23 22 21 20 20 19 20 20 20 19 18 18 18 18 19 21 21 22 21 21 21 22 22 21 22
27 25 24 22 20 16 13 13 16 22 24 26 29 33 38 39 37 34 36 39 37 37 37 33 32 31 31 31 32 33 34 35 36 36 36 36 36 38 39 35 32 30 28 26 25 24 24 25 24 28 32 30 28 27 26 26 24 24 23 22 20 19 20 20 21 22 22 23 24 24 25 24 23 22 21 21 20 20 19 20 19 19 19 18 18 18 19 20 21 22 22 22 22 22 23 23 22
27 25 23 20 18 16 14 14 18 24 26 28 29 33 38 39 37 34 34 36 34 34 34 31 31 31 31 32 33 33 34 35 36 37 38 37 38 40 40 35 31 29 27 24 24 23 23 24 25 29 30 25 22 21 21 22 22 23 22 20 19 19 20 21 22 22 23 24 24 25 25 24 24 23 22 22 20 20 19 19 19 19 19 18 18 18 19 20 20 22 23 23 23 23 23 23 23
26 24 21 18 17 16 15 16 20 26 28 30 31 34 39 36 36 36 34 32 32 34 33 31 31 31 32 33 33 34 34 35 35 34 35 35 37 39 38 34 30 28 26 23 22 22 23 24 24 24 22 17 16 17 18 20 21 21 20 19 19 20 21 22 22 23 24 24 25 25 25 24 24 24 23 22 21 20 20 19 18 18 18 18 18 18 19 19 20 21 22 23 23 23 23 23 23
25 23 20 16 15 17 17 18 22 28 31 32 33 36 38 35 35 38 35 33 35 35 35 34 33 33 32 32 33 33 33 33 32 30 30 31 32 34 34 32 29 28 26 23 22 21 21 21 22 23 22 20 18 18 19 20 19 19 18 18 19 20 21 22 22 23 24 25 25 25 25 25 24 24 23 22 21 21 20 18 17 17 17 18 18 18 19 19 20 20 21 22 22 23 22 22 22
25 23 19 15 16 20 20 20 24 30 33 34 36 38 39 38 36 38 37 37 39 38 38 38 36 35 34 34 34 33 33 33 32 30 30 30 29 29 29 28 28 28 26 24 23 21 20 19 20 21 19 16 16 16 17 18 17 17 17 18 20 21 22 22 23 24 25 25 25 25 25 25 24 24 23 22 21 21 19 18 17 17 17 18 18 18 18 19 19 20 20 21 21 22 22 22 22
24 22 18 17 19 21 21 22 25 30 34 36 38 39 39 38 37 37 36 38 40 40 39 38 36 35 34 35 35 34 33 34 33 30 29 29 27 25 25 25 25 24 23 22 21 20 19 20 21 21 16 13 14 15 16 16 16 17 18 19 20 21 22 22 22 23 24 25 26 26 26 25 24 23 22 22 21 20 19 17 17 16 17 17 18 18 18 18 18 19 20 20 21 21 21 22 22
24 20 18 19 19 19 21 22 24 28 32 36 38 38 38 37 36 34 30 30 33 33 33 32 32 31 31 32 32 32 32 32 30 27 26 25 22 20 20 20 19 18 17 16 16 16 18 19 20 20 17 15 16 17 17 18 19 19 20 20 20 20 21 21 22 23 24 25 26 26 25 24 24 23 22 21 21 19 18 17 17 16 17 17 17 17 17 17 17 18 19 20 20 20 21 22 22
24 20 18 19 19 19 22 23 24 27 30 34 35 33 33 32 32 30 25 23 23 24 26 27 28 27 27 28 28 27 27 26 25 24 23 21 19 18 17 17 15 13 12 12 13 14 16 17 17 18 19 19 19 19 19 19 19 19 19 18 18 19 20 20 21 23 24 25 25 24 24 23 22 21 20 20 19 18 17 17 17 17 17 17 16 16 16 16 16 17 18 18 18 19 20 21 21
24 20 19 20 20 20 22 24 25 26 27 30 30 28 28 27 26 26 24 22 22 22 24 25 24 23 23 24 23 22 22 21 21 21 20 20 20 18 17 18 16 13 12 11 12 14 14 15 16 17 19 19 18 18 18 17 17 17 18 17 17 18 19 20 21 22 23 23 23 21 20 19 19 20 19 19 18 17 16 16 17 17 17 16 16 16 16 16 16 16 16 17 17 18 18 19 20
25 22 22 23 23 22 24 25 26 26 26 26 26 25 24 22 21 23 23 23 22 22 23 21 20 19 19 19 18 18 19 19 19 18 18 18 19 18 18 18 17 15 14 13 13 13 12 12 15 16 18 19 19 19 18 17 17 16 16 16 17 18 19 20 20 21 21 21 19 17 16 16 17 17 17 17 16 16 16 16 17 17 16 15 15 16 16 16 16 16 16 16 16 17 18 19 20
25 25 25 24 24 23 24 25 25 24 25 25 23 21 21 19 19 22 22 23 22 22 20 18 17 16 17 16 16 17 17 18 18 17 16 16 17 17 17 18 18 17 15 14 13 11 10 10 14 18 19 19 20 21 20 17 16 15 15 15 16 17 18 18 18 18 18 17 16 15 14 14 15 14 14 14 14 15 15 16 16 16 15 15 15 16 16 16 16 16 16 16 16 17 18 19 19
26 26 25 23 23 23 24 24 24 24 24 23 21 20 19 17 18 20 22 23 22 20 19 17 16 16 16 16 16 16 16 16 16 16 14 14 16 17 17 17 17 17 15 14 13 13 9 8 13 20 20 18 21 22 19 15 14 14 15 16 16 17 17 17 16 16 16 16 15 14 13 13 13 12 12 12 13 14 14 15 16 16 16 15 16 16 16 16 17 17 17 17 17 17 18 18 18
26 25 24 23 23 23 23 23 25 25 24 23 22 20 17 15 17 20 24 24 20 19 19 17 16 16 17 17 17 15 15 15 16 16 15 15 16 17 17 15 14 16 15 13 13 13 10 6 9 14 14 14 18 19 16 14 14 14 15 16 17 17 16 16 16 16 15 16 15 14 13 13 12 11 11 11 12 13 14 15 15 16 16 16 16 17 16 16 16 17 17 17 17 18 18 18 18
27 25 24 24 22 21 22 23 26 26 27 26 25 22 16 17 21 24 28 24 18 19 20 18 16 17 18 17 16 15 15 16 16 15 14 14 15 14 14 13 13 15 13 11 10 10 12 12 13 15 12 12 15 15 14 14 14 15 16 17 18 17 17 16 16 16 15 16 15 14 13 13 13 11 11 11 12 13 15 15 15 16 16 16 17 17 17 16 17 17 17 17 18 19 19 18 18
28 27 26 25 23 23 24 26 27 28 29 28 28 24 18 21 25 27 30 23 17 21 21 18 18 19 19 17 15 15 15 15 13 11 10 10 12 12 12 12 13 14 12 11 10 9 9 13 15 15 11 12 15 15 14 14 14 15 16 17 18 17 17 16 16 15 15 15 14 13 13 14 13 11 11 12 12 13 13 14 15 16 16 16 17 16 16 16 17 17 17 17 18 19 19 18 18
28 27 27 26 25 25 27 28 28 28 29 28 29 26 19 23 28 29 29 22 19 23 21 19 19 20 20 16 14 12 12 11 9 8 9 10 12 12 12 12 15 15 13 13 13 11 8 8 10 9 8 12 16 16 15 14 13 14 14 16 17 17 17 16 15 15 14 14 14 14 14 14 13 12 12 12 12 12 12 14 14 15 16 17 17 16 16 16 16 17 18 18 18 19 19 18 18
27 26 27 27 27 27 28 28 27 27 28 28 29 26 23 27 30 30 28 22 22 24 22 20 20 20 19 15 12 10 9 10 9 9 11 11 12 13 12 12 13 14 13 13 14 14 10 6 6 7 10 14 16 16 15 14 13 13 13 14 16 17 17 16 15 14 14 13 12 13 14 14 13 12 13 13 13 12 13 14 15 15 17 18 17 16 16 16 16 17 18 18 19 19 19 19 18
26 27 28 28 27 26 26 25 25 27 28 27 26 25 25 28 30 30 28 24 24 24 22 20 20 20 17 13 12 11 11 12 12 14 15 13 12 12 11 10 10 10 10 11 14 15 9 3 5 8 12 14 16 16 15 13 13 13 13 14 15 16 16 16 15 15 14 13 12 12 13 13 12 13 14 14 13 13 15 15 15 15 15 17 18 17 17 17 17 17 17 17 17 18 18 18 18
26 28 28 27 26 25 24 25 26 27 26 25 25 26 26 28 30 30 27 24 23 22 20 18 19 19 16 14 14 15 15 15 17 19 18 17 14 11 10 10 10 9 10 15 19 18 11 5 8 11 12 13 14 14 13 12 12 13 14 14 14 15 15 15 15 15 14 13 12 12 12 12 13 13 13 13 13 14 15 14 15 16 15 16 18 17 17 16 17 17 17 16 16 16 17 18 18
27 27 26 25 25 24 24 24 24 23 21 22 25 25 26 27 28 28 25 23 22 20 17 16 16 14 13 14 16 17 18 17 18 19 18 17 14 11 10 10 9 7 9 15 18 17 9 6 9 10 10 11 12 13 12 11 12 13 14 14 14 15 15 15 14 14 14 13 12 12 12 12 13 13 12 13 13 13 14 14 15 16 15 16 18 18 17 16 17 17 17 16 16 16 16 17 18
26 25 23 24 24 24 23 21 21 21 17 18 21 21 23 25 24 24 23 20 20 19 17 16 11 10 12 15 17 18 17 16 15 15 16 15 13 11 11 9 8 6 6 9 13 13 11 9 7 8 9 9 10 11 10 10 12 14 14 14 15 15 15 15 14 14 14 13 13 12 12 12 13 13 13 13 13 12 13 13 14 14 14 16 19 19 17 16 16 16 16 16 16 16 16 16 17
24 23 23 24 25 25 23 21 21 20 16 16 18 19 20 20 17 16 16 16 18 18 17 13 8 9 13 16 18 17 14 12 11 12 12 12 12 12 12 11 9 8 8 8 10 12 11 10 9 9 10 10 10 10 10 11 12 14 15 16 16 17 17 16 15 14 14 13 13 12 13 13 13 13 13 13 13 13 13 13 13 13 14 17 19 18 17 16 16 16 16 17 17 17 16 16 17
24 24 24 26 27 25 24 24 20 17 16 15 15 16 18 19 15 10 9 11 14 15 14 10 8 10 14 16 17 16 12 10 11 11 10 10 12 14 14 14 12 12 11 10 11 11 11 11 11 11 12 11 10 10 10 11 12 14 16 17 17 18 18 18 17 15 14 14 13 12 13 13 13 14 14 14 14 14 14 14 14 14 15 17 18 17 17 17 16 17 18 18 18 19 18 18 18
23 24 25 28 28 25 24 23 18 16 17 15 13 13 16 18 16 10 9 10 11 12 12 11 11 12 14 17 18 17 12 10 11 11 10 11 12 14 15 16 15 15 14 13 13 13 12 12 12 12 13 12 10 10 10 11 12 14 16 18 18 18 18 18 17 16 16 15 14 13 13 13 14 14 14 14 14 14 14 15 15 16 17 18 19 18 18 18 19 19 20 20 20 20 20 19 19
21 24 27 28 28 25 23 20 17 17 19 18 16 14 13 15 14 12 13 13 11 12 12 14 14 14 17 19 19 18 15 12 12 12 13 13 12 13 15 16 17 16 16 15 15 15 14 14 13 13 12 11 11 11 12 13 14 15 17 18 18 18 18 17 17 16 16 16 15 14 14 14 15 15 14 14 13 14 14 15 16 18 19 20 20 20 20 21 21 21 21 22 22 22 21 20 19
21 25 29 29 28 26 23 20 19 20 20 20 20 16 14 14 14 14 15 15 13 14 15 16 17 18 20 20 20 20 17 15 14 13 13 12 12 13 14 16 15 16 16 16 17 17 16 15 14 13 13 12 12 13 13 14 15 16 17 17 17 17 17 18 18 17 16 16 15 15 14 14 14 14 14 13 13 13 14 15 16 18 20 21 21 22 23 23 23 23 23 23 23 22 22 20 20
21 26 30 30 28 26 25 23 23 23 22 23 22 18 15 15 15 16 17 17 17 17 17 18 19 21 22 22 23 22 19 17 15 11 10 10 10 13 14 14 14 14 15 16 17 17 16 15 15 14 14 14 14 14 14 15 16 17 17 17 15 15 16 18 18 17 16 16 15 15 14 14 14 14 13 13 13 13 14 14 15 17 18 20 21 22 23 23 24 24 23 23 23 22 22 21 20
22 27 31 32 30 27 25 25 26 25 25 26 25 21 19 18 18 19 20 21 22 22 21 21 22 23 24 25 26 24 22 19 14 9 10 10 9 11 12 12 12 12 13 13 14 14 14 14 15 16 16 17 16 16 16 16 16 17 17 17 15 15 15 16 18 18 17 16 16 15 14 13 13 14 13 12 12 13 13 14 14 16 17 18 20 21 22 22 23 23 23 23 22 22 22 21 21
22 27 33 34 32 30 27 27 29 28 27 28 28 26 24 23 22 24 24 25 26 26 25 24 24 26 26 26 26 26 25 22 16 13 12 10 8 10 12 13 12 11 11 11 12 13 14 15 16 17 18 18 18 18 18 17 16 17 18 18 17 16 15 14 17 19 19 17 16 16 15 13 13 13 14 13 12 12 13 13 14 15 16 17 18 19 19 20 20 20 21 21 22 22 21 22 22
21 27 34 36 34 32 30 29 31 32 30 30 31 30 28 27 27 28 28 28 29 30 29 28 27 27 27 27 28 28 28 26 20 16 12 8 7 10 12 12 11 10 10 11 12 13 14 15 16 18 19 19 20 20 20 19 18 17 17 18 18 17 15 14 17 21 22 21 18 16 15 13 13 13 14 14 13 12 12 13 13 14 15 16 16 16 17 17 18 18 19 20 21 21 22 22 23
21 27 34 37 36 33 32 31 32 34 34 33 33 33 31 29 29 29 30 30 31 32 32 32 30 28 29 30 31 31 31 29 25 19 10 6 8 10 11 11 11 11 12 13 14 14 15 16 17 18 20 21 22 22 22 21 20 18 17 17 17 16 14 13 16 21 24 25 22 17 15 13 12 13 14 14 14 13 12 12 13 13 14 15 15 15 15 16 17 18 19 20 21 21 22 23 23
20 24 30 35 37 36 34 33 33 34 34 34 35 34 33 31 29 29 29 30 30 31 32 32 31 29 30 32 33 34 33 31 28 20 11 9 11 11 11 12 12 12 13 13 14 15 17 18 19 21 22 23 23 23 24 23 22 20 19 17 17 17 18 18 20 23 24 26 24 19 16 14 12 12 13 14 14 13 13 12 12 12 13 14 15 15 15 16 17 18 19 20 21 21 22 23 23
19 21 25 30 34 38 38 36 35 35 35 35 35 34 34 34 33 31 30 28 28 28 30 31 30 29 30 31 33 34 33 31 28 20 14 13 13 12 12 13 13 13 13 14 15 17 19 21 22 23 24 24 24 24 24 22 21 22 22 19 17 18 20 22 25 26 25 24 23 19 17 15 13 12 12 13 14 13 13 12 11 12 12 13 14 14 15 15 16 17 18 19 20 20 21 22 22
18 20 23 25 30 35 38 39 39 38 37 36 35 35 35 36 36 33 31 30 28 28 29 29 30 30 30 31 32 33 33 30 26 19 17 16 15 14 15 15 14 13 14 15 17 18 20 21 21 22 23 24 24 24 23 22 22 22 23 21 18 19 21 23 24 25 23 21 19 18 17 16 14 13 12 12 13 13 12 12 12 11 12 12 12 13 13 14 14 15 16 17 18 19 20 20 21
19 19 21 23 28 32 35 39 41 40 38 37 37 37 36 38 38 35 32 31 29 29 30 30 31 32 32 33 33 33 31 28 25 21 18 18 17 17 18 18 16 14 15 16 17 19 19 20 20 20 22 23 24 24 24 25 23 20 21 20 18 20 22 23 22 21 20 20 19 17 16 16 15 14 12 12 13 12 12 11 11 11 12 12 12 11 11 12 13 14 15 16 17 18 18 19 19
19 20 21 23 26 29 32 36 39 40 39 37 36 37 38 40 40 36 34 32 30 30 29 29 30 32 33 33 33 33 31 29 26 23 21 20 20 20 20 19 17 16 16 17 18 18 18 19 19 19 22 23 24 24 25 26 22 19 21 20 17 18 20 20 19 18 19 20 20 18 17 16 15 14 13 13 13 13 11 10 10 11 11 12 12 12 11 11 12 12 13 14 15 16 17 17 18
20 22 23 23 25 27 30 33 37 40 41 39 38 37 38 39 37 35 33 30 30 29 28 28 29 30 31 31 31 33 33 31 27 24 23 22 21 20 20 19 18 18 19 19 19 17 17 18 18 19 21 22 22 22 24 25 23 22 23 21 18 18 18 17 16 16 17 19 21 19 18 17 16 15 15 14 14 14 12 11 10 11 11 12 12 12 13 12 12 11 11 12 12 13 14 15 16
21 22 23 24 26 27 28 30 32 36 37 37 36 35 35 35 33 31 29 28 28 27 27 28 28 28 28 28 28 30 29 27 25 24 22 20 20 20 20 19 20 20 19 19 18 16 16 16 15 16 18 18 17 17 18 19 20 20 21 20 19 18 17 16 15 15 17 20 22 21 20 18 16 15 15 15 16 15 14 13 12 11 12 12 12 12 12 12 12 12 12 12 12 12 13 13 14
21 21 22 25 27 28 28 28 29 30 30 30 31 30 30 31 31 28 26 25 26 26 26 27 28 28 27 26 27 28 28 25 21 20 19 19 20 20 20 20 20 19 18 17 16 15 15 15 14 15 16 16 15 15 14 14 16 18 18 18 17 16 17 17 16 17 18 20 23 24 22 19 17 16 15 15 16 16 17 16 15 13 13 13 13 12 12 12 12 13 13 14 14 13 13 13 13
20 20 22 24 26 26 27 27 27 27 26 25 26 26 27 29 28 27 25 23 23 24 23 23 24 26 27 27 26 26 27 25 20 18 18 19 20 21 20 19 18 17 16 16 16 16 16 16 16 18 20 19 16 14 14 15 17 19 19 18 17 16 16 16 17 18 17 20 24 25 23 20 17 16 16 16 16 17 17 18 17 16 15 13 13 13 13 12 12 12 13 14 14 15 15 14 14
21 22 23 24 25 25 25 25 26 25 22 21 22 22 24 25 24 24 22 22 21 20 20 19 20 21 23 23 23 23 24 23 20 19 19 18 18 18 17 16 15 16 16 17 18 18 18 18 18 19 21 21 18 16 16 16 17 18 17 16 16 13 12 14 16 18 17 19 23 24 21 19 18 17 17 17 17 17 17 17 17 16 15 14 13 13 13 13 13 13 13 13 14 14 15 15 15
22 23 25 25 25 25 25 24 24 23 21 20 19 19 20 21 21 21 21 21 20 19 20 21 20 20 20 20 22 23 23 22 20 19 18 16 15 14 14 14 15 16 17 18 19 19 19 19 18 19 19 20 19 18 17 17 17 17 15 15 15 14 16 17 17 19 19 19 21 22 21 21 19 17 16 16 16 16 16 17 16 16 15 14 14 14 14 14 15 15 15 14 14 14 15 15 16
23 24 26 27 27 26 25 25 25 25 24 23 21 19 18 18 19 20 20 20 20 19 20 21 20 20 20 21 22 22 21 20 21 20 18 16 15 14 14 15 17 19 20 20 20 20 21 21 20 20 20 20 20 20 19 19 19 18 16 16 17 19 21 19 18 19 20 20 21 22 23 23 23 20 18 16 16 16 16 16 16 16 16 16 15 15 15 15 16 16 16 16 15 15 15 16 16
Wind_Direction
254 253 253 254 254 255 256 257 258 258 258 258 258 258 250 234 226 235 243 246 251 247 243 248 251 251 250 251 252 250 250 253 258 263 266 266 267 270 271 272 273 276 280 282 285 283 277 274 273 272 275 278 280 284 289 292 289 285 283 284 284 284 285 288 290 292 294 295 295 296 298 299 299 298 299 299 299 298 297 297 297 297 297 295 291 288 284 276 268 263 260 260 264 265 265 268 269
254 254 254 254 254 255 255 255 256 257 257 256 256 252 242 231 225 233 242 244 248 246 241 244 248 252 253 252 251 249 249 254 257 258 260 262 265 268 270 273 276 279 281 284 289 287 278 270 268 269 271 274 275 278 285 289 286 282 281 282 282 283 285 288 291 292 294 295 296 296 297 297 298 298 298 297 297 296 294 294 293 294 293 291 288 285 280 272 264 259 256 256 259 262 262 265 268
254 254 254 255 254 254 254 255 255 255 255 255 253 243 235 231 225 229 236 240 244 244 239 239 244 249 253 254 253 250 250 254 257 258 262 264 267 270 272 274 276 278 279 284 289 287 281 276 270 266 267 268 269 274 280 283 281 278 279 280 280 282 285 288 290 292 294 295 295 296 296 296 297 297 297 295 294 293 292 291 290 291 289 287 284 281 277 269 261 257 254 251 254 258 259 261 264
253 254 254 254 254 254 254 255 255 255 255 253 242 235 230 229 227 225 231 236 239 240 240 240 241 245 248 250 252 251 249 253 256 258 262 264 266 268 270 272 274 276 278 281 283 281 281 282 275 265 264 265 265 269 274 277 276 275 275 276 278 281 284 287 290 293 294 294 294 294 294 295 295 295 294 292 290 290 288 288 288 287 285 284 282 279 275 267 258 253 251 247 247 252 255 257 259
253 253 253 254 254 255 256 256 256 256 255 244 229 227 224 225 226 225 229 234 236 237 239 240 239 241 244 244 248 249 249 251 253 255 258 260 262 265 269 272 276 281 283 281 278 276 277 280 275 265 266 266 264 265 268 272 272 271 270 272 276 280 284 288 291 292 293 293 293 292 293 293 293 292 291 289 288 287 286 286 286 285 283 282 281 277 272 265 256 251 249 246 244 247 249 252 254
252 253 254 254 255 256 257 257 256 255 249 232 221 220 221 221 222 225 228 230 234 236 236 238 238 238 240 240 244 247 250 251 252 254 256 258 261 263 267 272 276 277 281 283 278 273 272 277 270 265 271 269 265 262 264 268 266 264 264 268 273 279 284 288 290 290 291 291 292 292 292 291 290 289 287 285 284 284 284 285 285 283 282 280 279 275 270 263 255 249 247 246 244 244 244 246 249
253 254 255 256 256 256 256 256 256 252 239 220 215 218 220 218 220 225 228 228 230 233 233 235 236 238 240 241 245 248 253 255 255 255 256 257 259 261 266 270 273 273 275 279 280 275 269 270 267 269 274 270 265 260 262 264 258 257 259 265 271 278 284 286 288 289 290 291 291 291 290 289 287 285 283 282 281 282 283 283 283 282 280 279 276 272 268 262 254 248 247 247 244 244 243 243 246
254 255 256 257 257 257 257 256 256 250 231 214 211 216 218 218 221 223 227 230 230 232 233 233 236 239 242 244 248 252 255 258 258 259 258 258 259 263 268 270 272 275 277 276 276 276 270 266 267 270 271 266 262 257 258 257 251 252 255 262 268 275 280 283 287 288 288 288 288 289 288 287 285 284 282 281 280 281 282 282 282 280 279 276 272 268 266 260 254 248 248 248 245 245 244 243 244
254 255 256 257 258 260 259 257 253 236 218 208 209 216 217 219 222 222 225 230 230 232 235 235 237 241 243 246 250 255 258 260 261 263 263 261 261 264 267 269 274 277 280 280 270 271 277 273 269 265 263 261 255 251 251 249 246 246 250 257 263 269 276 281 284 285 286 286 286 286 285 284 284 283 282 281 280 281 282 282 281 278 275 273 269 263 261 259 254 249 248 249 247 245 245 243 242
255 256 257 258 259 259 258 254 242 226 216 205 209 218 218 220 221 222 226 230 229 231 234 236 238 242 244 247 252 257 260 262 263 265 267 268 267 267 269 272 278 277 279 285 271 266 274 276 275 263 254 251 243 242 244 242 239 239 243 249 257 265 272 277 280 282 283 282 282 281 281 282 282 282 281 280 280 280 281 281 280 277 273 269 264 259 256 255 253 250 248 250 250 246 244 243 241
256 257 257 258 258 257 257 252 241 231 222 208 211 220 218 220 223 223 227 231 231 232 234 236 239 243 247 251 254 258 262 266 269 269 270 273 274 272 273 275 278 275 276 284 276 267 267 275 278 258 241 239 235 235 235 232 231 233 238 245 253 263 269 273 276 277 278 278 278 278 278 279 280 280 279 279 278 279 279 279 278 275 271 266 260 255 251 250 250 249 247 249 251 246 242 241 240
258 258 257 258 258 258 257 252 242 228 223 213 211 218 219 220 224 224 226 230 232 234 237 240 243 247 252 256 258 262 268 273 276 277 276 278 279 278 278 276 272 270 274 280 277 271 270 273 268 249 236 237 234 231 228 227 231 233 236 243 252 260 266 270 271 272 273 274 275 276 277 278 280 279 278 277 276 276 276 276 275 272 269 264 258 251 248 247 247 247 246 248 250 247 242 239 239
257 258 258 259 258 259 257 250 240 221 221 217 210 218 222 221 223 223 224 229 233 236 240 245 248 252 256 261 263 267 274 278 279 282 283 281 281 284 290 287 273 268 270 275 276 272 272 270 260 253 248 239 233 231 232 234 237 235 236 244 252 257 261 264 266 268 269 271 273 275 277 278 278 278 276 275 273 273 272 272 271 269 267 263 257 250 246 245 246 245 245 247 249 249 244 239 238
258 260 260 260 258 259 255 244 233 222 224 219 212 216 220 220 223 225 225 227 232 236 240 245 251 256 260 265 268 271 276 280 280 281 282 282 281 283 292 294 282 274 271 271 274 273 271 269 261 259 255 243 238 241 242 240 238 237 240 247 252 255 258 260 263 264 266 269 271 273 274 275 276 276 275 274 272 270 269 267 266 265 264 262 259 253 246 243 245 245 246 247 249 250 249 244 240
258 259 259 259 258 257 249 238 227 226 227 219 214 215 217 219 222 225 227 228 231 235 238 244 251 258 263 267 272 275 278 280 281 280 281 283 284 284 289 291 283 279 277 272 271 270 270 269 263 260 257 251 246 244 240 234 236 240 243 248 250 252 255 257 259 261 264 267 268 270 272 273 275 275 276 274 272 270 268 266 263 262 260 260 257 253 247 243 244 246 248 248 250 252 252 249 244
257 258 259 258 258 253 241 232 222 225 226 219 216 215 216 218 219 222 226 229 232 236 238 245 252 258 264 269 273 275 277 280 282 283 284 285 286 285 287 286 280 277 279 276 271 268 270 268 267 264 258 250 240 235 232 232 238 242 244 245 246 248 251 253 257 260 262 264 266 268 270 273 275 276 276 276 275 273 270 268 265 262 259 257 256 253 248 245 243 245 248 249 250 251 252 251 248
258 258 259 258 256 249 238 228 219 225 225 219 218 215 215 217 217 220 224 229 233 238 243 250 255 259 264 268 272 275 277 280 283 285 287 287 287 284 283 281 277 276 278 280 275 268 268 269 274 267 252 240 233 233 235 237 241 242 243 242 242 246 249 253 256 259 261 264 267 268 271 273 275 276 276 277 278 277 274 271 268 264 260 257 256 253 249 246 244 244 247 249 250 250 251 251 250
259 258 258 256 252 246 237 224 219 226 223 218 219 216 215 216 217 220 223 227 231 236 243 250 256 260 264 268 271 275 278 280 284 286 288 288 285 280 277 276 274 274 277 281 279 271 269 270 276 272 262 260 252 246 244 241 240 238 237 237 241 246 250 253 256 259 262 264 267 270 272 274 276 277 277 279 280 280 277 274 271 267 263 260 257 254 250 248 246 245 246 248 250 251 251 251 251
259 258 256 253 246 241 233 220 219 223 222 218 218 217 215 215 218 222 225 229 233 235 240 246 252 258 263 268 271 275 279 281 284 286 287 286 283 279 277 276 275 275 278 280 281 280 282 280 279 278 281 282 266 250 239 231 229 229 232 238 243 247 251 254 257 261 263 266 269 271 274 276 277 278 279 281 281 280 278 275 272 269 266 262 259 256 253 250 248 247 247 249 251 253 254 253 252
257 257 255 244 236 237 230 221 219 219 221 220 217 218 216 216 221 227 230 233 236 237 240 246 251 256 261 265 269 275 279 284 286 286 285 283 282 282 283 282 280 279 281 282 283 286 289 289 285 283 284 279 258 236 224 221 224 230 237 242 246 251 255 258 261 265 268 271 273 275 277 278 279 279 280 281 280 278 275 273 271 268 265 261 258 257 255 253 252 251 250 251 252 255 256 256 254
255 256 249 237 234 238 235 229 226 222 223 223 221 221 221 225 232 236 239 241 241 244 247 252 256 259 263 267 270 275 279 283 286 285 283 282 284 287 289 290 287 285 285 284 285 287 287 287 289 285 276 263 247 230 222 225 231 237 242 247 251 256 259 262 265 269 272 275 276 278 280 281 282 282 281 279 276 274 273 272 270 266 262 259 257 258 258 257 256 255 253 253 253 254 255 255 255
252 251 244 238 236 236 237 235 233 229 227 228 228 227 229 236 242 246 252 252 251 254 257 259 263 266 268 270 272 275 279 282 282 281 280 284 288 289 289 290 288 288 290 288 287 287 286 286 286 280 265 252 246 236 228 229 234 240 246 251 254 257 260 264 267 271 274 276 278 280 282 283 283 282 279 275 272 271 272 272 270 266 261 259 259 259 259 259 258 256 255 255 254 253 254 255 255
248 246 242 240 235 232 237 239 237 237 233 232 235 237 238 242 248 253 260 262 261 259 259 261 265 270 271 271 272 277 280 280 280 278 279 283 285 284 287 292 294 292 292 289 286 285 283 281 281 273 260 252 244 232 227 230 237 243 248 251 254 257 261 265 268 271 273 275 277 279 281 283 282 280 275 271 268 269 271 272 270 267 263 261 260 259 259 260 259 257 256 256 254 253 253 254 255
244 241 239 237 235 229 233 239 238 241 241 238 239 243 245 246 251 252 255 264 265 258 258 262 267 271 271 271 274 278 280 281 281 281 280 279 279 281 285 296 303 301 298 293 289 287 284 283 281 271 256 245 235 229 231 238 243 247 250 252 255 259 263 265 267 269 270 272 274 277 280 281 279 276 271 268 267 267 268 269 268 266 263 260 258 256 257 259 259 258 256 254 253 252 252 254 255
241 238 237 237 237 230 230 238 240 242 244 243 243 244 247 248 249 248 253 265 264 259 263 267 271 273 273 275 277 278 279 281 282 281 280 279 280 281 283 290 295 296 294 289 287 286 287 287 279 267 250 238 236 239 243 244 245 248 252 255 259 262 264 265 264 265 267 269 272 275 278 277 274 273 270 266 265 264 264 264 264 263 260 256 253 253 253 255 256 257 255 253 252 252 252 253 254
242 242 243 243 243 237 236 242 244 245 246 247 248 247 248 248 248 252 258 265 266 266 268 270 272 273 275 278 277 277 279 280 281 281 283 281 281 283 283 287 290 290 287 282 276 273 283 284 261 247 239 239 251 255 249 244 243 248 253 257 260 260 261 261 261 262 265 267 270 272 273 271 271 271 268 265 264 262 261 259 257 257 255 251 249 250 251 253 256 257 257 255 254 254 253 254 255
247 248 250 248 245 242 241 245 248 250 250 251 251 248 247 248 251 258 260 261 263 267 270 271 273 273 275 277 275 276 276 275 276 280 283 281 279 279 280 285 289 284 274 268 263 260 281 291 253 239 238 251 266 260 247 242 244 249 253 254 256 255 256 257 259 261 262 264 265 265 267 265 266 267 264 263 262 260 258 256 253 252 251 249 247 248 250 253 255 257 258 257 255 254 255 257 259
250 251 253 250 245 242 242 245 249 252 254 253 253 249 247 250 254 259 260 257 257 264 268 269 271 273 274 272 271 269 268 271 278 282 285 288 287 282 280 285 288 280 267 258 256 254 265 274 242 235 243 262 263 251 242 242 245 248 250 252 253 252 253 254 257 258 259 260 260 259 259 259 262 261 259 258 257 255 253 252 251 250 249 248 245 246 248 250 253 254 255 255 255 255 256 258 261
250 251 251 250 247 245 244 245 247 251 252 253 254 251 248 252 255 257 258 256 255 257 261 264 266 267 265 263 263 262 265 273 279 282 286 293 298 295 293 293 283 275 267 258 251 248 255 253 235 230 243 259 252 245 244 245 246 248 249 250 252 252 253 254 256 257 257 259 259 258 257 258 260 257 253 253 252 250 249 247 246 246 246 245 242 242 245 247 250 252 253 254 255 256 257 259 261
249 249 249 249 248 246 244 242 242 245 247 249 251 250 245 250 252 253 256 256 253 255 256 257 256 254 253 254 259 265 270 274 275 279 287 296 302 301 300 292 271 259 250 240 232 233 247 250 240 234 238 245 247 248 248 248 250 250 249 250 253 255 255 256 257 258 259 261 262 260 257 257 258 254 248 247 249 248 245 243 240 241 242 242 241 241 244 246 248 250 251 253 255 258 258 258 260
246 247 247 246 244 244 243 242 243 245 246 247 249 248 241 245 249 250 254 254 251 253 253 249 247 246 247 251 259 269 275 275 271 277 292 299 298 295 291 280 263 249 231 219 221 223 218 218 222 220 227 241 248 251 251 253 256 256 256 257 258 261 262 262 262 262 262 262 262 260 257 254 252 249 244 244 247 245 239 235 232 234 237 238 240 241 244 246 248 249 250 251 253 256 259 259 259
241 242 242 241 241 243 245 246 246 245 244 243 246 246 240 241 247 249 251 250 247 250 249 247 246 245 246 252 257 260 266 267 264 274 292 296 295 295 289 276 264 251 232 218 217 213 196 192 215 219 233 246 250 250 250 253 258 263 264 263 264 266 268 268 267 266 266 264 262 260 259 256 252 249 247 247 246 242 238 231 227 228 231 235 238 241 244 246 248 250 251 251 252 255 258 259 258
235 236 238 239 241 243 245 245 242 239 238 237 238 238 237 240 244 246 246 244 243 246 245 245 245 242 245 254 258 258 262 265 268 280 289 287 290 295 285 270 269 264 247 236 226 209 186 180 244 243 245 249 250 247 246 250 256 262 264 266 267 268 270 271 271 270 268 265 262 260 259 259 256 253 253 252 245 240 237 229 225 224 225 230 235 239 243 245 247 249 251 252 254 255 256 255 253
233 235 237 239 242 241 239 237 235 234 232 230 231 231 232 237 241 243 243 240 240 242 243 243 242 240 247 262 272 275 278 280 281 284 284 280 282 281 271 269 278 276 260 250 231 206 182 189 229 243 248 248 249 247 248 254 261 265 267 268 269 271 272 273 273 271 269 266 262 259 257 257 256 254 256 256 249 242 235 226 224 221 216 222 229 233 237 241 244 246 250 252 254 256 255 252 249
232 236 235 236 236 233 230 228 229 229 223 224 230 230 231 236 240 244 243 239 236 237 236 235 237 246 261 276 284 289 294 297 292 284 280 278 273 260 259 270 281 284 270 255 230 208 206 232 235 245 250 251 253 253 255 262 271 276 277 277 277 278 276 274 273 272 270 268 264 262 259 256 255 254 253 252 250 246 236 226 223 219 215 219 227 231 232 236 242 244 246 249 254 255 254 251 248
230 232 228 228 228 226 224 219 220 220 212 217 224 225 230 235 239 243 244 238 233 234 232 231 239 263 278 283 286 293 298 299 297 291 283 277 264 249 253 258 261 259 254 253 238 234 257 272 266 266 264 263 261 257 260 268 279 285 287 289 288 286 283 278 275 271 270 268 265 263 259 257 256 254 251 244 243 242 235 230 225 221 219 221 230 236 234 234 241 243 245 248 253 255 253 250 248
227 224 220 224 226 223 214 203 208 215 210 216 221 220 223 227 230 239 245 239 236 239 239 237 247 269 279 285 289 293 291 287 299 306 296 280 262 249 251 251 249 244 239 241 244 249 261 270 274 274 269 266 261 261 268 274 281 288 291 293 292 291 289 285 281 274 269 267 264 261 257 255 252 251 249 242 236 233 230 230 228 226 224 226 234 239 237 237 241 243 246 248 251 253 251 249 247
224 219 216 221 223 219 207 198 203 212 211 217 223 222 221 218 214 225 249 250 245 246 245 239 244 267 279 283 288 293 289 286 300 307 303 289 269 258 257 258 255 252 251 250 252 255 260 266 270 270 268 266 262 265 271 274 280 287 291 292 292 292 291 289 286 281 276 272 267 261 255 253 251 248 246 242 236 232 229 227 227 226 226 230 236 238 237 239 241 243 245 247 249 250 250 249 248
222 215 214 217 219 216 205 200 205 209 207 206 210 220 224 221 220 234 260 261 251 248 247 243 245 262 272 274 284 292 291 293 302 302 296 287 277 269 265 264 261 260 261 259 259 262 262 263 264 265 268 268 266 268 271 273 277 283 287 290 291 290 289 288 287 287 284 280 276 268 257 251 248 247 245 242 239 235 232 229 228 227 227 230 233 235 237 239 241 243 245 247 248 249 250 251 250
217 210 212 214 216 215 205 198 205 208 202 196 196 208 224 231 237 249 258 257 249 243 244 249 253 256 260 269 283 290 288 293 300 300 292 281 276 275 269 266 266 265 266 264 262 263 263 264 264 266 269 270 272 273 272 273 276 279 282 286 289 288 286 284 283 284 283 282 280 276 268 256 248 245 245 244 242 240 236 232 230 230 229 231 232 234 236 238 241 243 244 246 247 248 249 250 250
211 207 212 214 215 216 209 198 201 206 200 194 197 205 220 238 250 254 256 255 250 246 249 261 269 266 265 272 284 289 291 298 303 307 305 286 265 265 268 269 272 271 267 265 263 264 266 268 271 274 275 275 277 278 277 278 278 277 277 281 286 288 287 285 282 281 280 280 279 277 274 268 256 248 244 245 245 245 242 238 235 233 232 232 233 235 237 239 241 243 244 246 247 249 249 249 249
206 207 213 216 214 215 213 203 200 204 199 195 198 204 214 230 244 250 253 252 248 247 251 261 269 268 269 273 279 287 292 298 308 320 328 308 266 260 269 272 273 270 265 263 264 268 272 276 279 279 280 281 282 281 281 283 283 280 275 274 280 286 287 285 284 282 279 277 277 275 273 273 268 257 249 246 246 247 247 245 242 239 237 236 235 236 237 240 242 245 246 247 249 250 250 250 250
208 209 214 218 216 214 213 206 202 204 205 200 198 200 208 218 229 237 242 246 247 247 250 254 259 262 266 269 274 282 287 292 305 317 326 320 282 264 266 266 264 261 261 263 267 273 276 278 279 280 283 284 284 283 284 285 285 282 273 266 271 281 285 286 286 285 282 278 274 272 270 270 272 266 258 250 247 248 248 248 247 245 244 241 239 239 239 240 241 243 244 246 247 248 250 252 251
212 211 213 218 219 216 213 207 202 205 210 207 201 202 206 210 221 232 236 240 245 249 253 255 257 260 263 266 270 276 281 284 292 300 307 309 279 251 245 249 251 250 255 260 263 267 269 272 276 279 281 280 280 281 282 281 281 280 271 262 266 279 284 289 291 289 287 283 277 272 268 267 269 269 264 257 251 249 248 249 248 246 246 245 243 242 242 242 242 243 244 245 247 249 250 253 253
212 207 209 215 219 218 215 208 203 206 210 210 209 212 213 212 219 231 236 240 245 248 252 254 257 259 260 263 267 272 277 280 285 293 299 291 259 239 233 236 239 241 245 249 252 256 260 266 270 272 273 273 275 276 275 276 276 277 271 261 262 274 281 287 294 294 294 290 283 276 270 266 266 269 265 258 252 249 248 247 248 248 248 247 246 245 245 246 247 247 248 249 250 251 253 254 254
210 207 208 213 218 219 219 214 210 211 212 214 219 223 225 223 224 232 239 243 246 248 249 251 253 254 255 258 263 268 272 277 283 286 286 274 254 239 227 223 226 237 245 248 251 254 257 259 261 262 264 265 267 269 269 271 273 274 272 262 256 260 267 279 293 298 299 295 287 280 273 266 263 267 265 259 250 246 245 246 248 251 252 251 251 250 250 250 251 252 253 254 255 255 256 257 257
212 213 211 213 218 219 221 221 220 221 221 222 226 230 233 233 232 235 241 246 247 249 251 252 251 250 251 255 259 265 269 274 279 276 268 269 262 248 237 232 234 242 250 254 257 258 257 255 252 251 255 258 262 265 266 267 271 275 275 265 255 255 262 274 288 296 298 292 287 284 278 268 260 262 264 259 250 242 239 239 244 249 253 254 254 253 254 254 254 255 256 256 257 257 258 258 258
220 221 217 216 220 221 222 225 227 229 231 231 233 237 240 241 241 238 241 249 252 252 253 253 252 251 252 255 258 262 266 271 273 268 264 267 259 249 245 242 244 248 254 259 260 259 258 257 255 254 256 258 260 263 267 273 278 279 279 276 272 272 274 277 282 288 290 285 283 286 285 276 265 261 264 261 253 244 236 233 234 242 248 252 254 254 255 255 256 257 257 258 258 258 257 257 257
235 229 224 222 225 225 224 227 229 232 235 238 239 241 245 248 249 246 244 248 251 252 252 250 249 249 250 253 255 259 263 265 266 265 265 259 248 245 248 250 252 254 255 256 256 259 263 269 272 272 271 270 269 271 275 277 277 278 280 280 283 285 285 284 281 281 281 278 281 289 291 284 272 264 265 264 257 248 241 235 231 235 241 247 253 257 257 257 257 258 259 261 261 261 260 260 259
245 234 228 228 230 229 228 229 232 234 236 239 242 245 249 252 254 254 251 249 248 250 250 248 247 247 247 249 252 256 259 260 259 259 256 248 243 247 253 258 260 258 256 255 258 265 271 277 280 281 280 279 278 278 276 272 270 276 280 278 281 285 288 288 282 277 275 274 281 292 295 290 276 266 264 264 260 251 243 240 238 238 240 243 248 254 260 261 261 261 262 263 264 264 264 264 263
244 235 229 229 231 232 231 231 234 236 237 239 244 248 252 255 257 258 256 254 250 249 247 244 244 245 245 247 250 252 252 252 252 248 243 241 245 251 255 258 260 260 260 260 264 269 271 272 275 279 280 277 273 269 266 266 265 276 284 280 278 283 287 285 276 272 275 276 282 289 293 292 280 269 266 265 264 257 248 243 242 243 243 244 245 247 251 256 260 264 265 266 267 268 268 268 268
244 239 232 230 231 233 233 233 235 237 237 239 244 250 252 254 257 257 255 252 250 248 246 242 241 243 245 246 248 252 250 245 243 241 239 241 247 251 254 257 260 265 267 267 269 269 269 272 276 282 283 279 273 264 261 264 267 278 286 280 275 280 282 276 265 267 274 278 283 286 288 289 283 275 271 268 269 267 261 254 248 247 247 248 250 250 251 252 255 260 264 267 270 271 272 273 273
242 242 239 234 233 234 234 235 235 236 238 241 245 249 252 252 252 252 251 248 246 247 248 248 245 243 244 245 249 253 245 236 237 242 244 247 248 250 253 257 263 268 269 269 269 266 268 273 276 283 287 283 278 271 270 275 280 289 291 282 277 277 270 261 258 267 275 278 285 287 284 285 282 277 275 273 274 274 270 266 260 255 252 250 251 252 256 259 261 264 265 267 269 271 273 276 277
236 239 240 237 235 237 237 238 239 240 242 245 248 251 252 253 252 251 249 245 244 246 250 254 252 246 243 243 248 250 243 239 241 244 247 250 251 253 257 260 263 264 265 265 265 264 267 271 268 273 282 282 279 282 292 299 300 297 290 279 275 267 259 260 264 269 275 277 281 283 281 279 278 277 278 277 277 277 275 271 267 262 257 254 253 251 253 257 262 267 268 269 270 271 273 275 277
230 229 233 234 235 238 240 241 244 247 248 248 248 248 249 251 252 250 247 245 245 245 247 251 252 248 244 242 245 248 247 248 249 248 251 253 254 256 258 259 258 259 261 264 266 267 268 271 267 265 271 277 282 288 296 303 307 302 290 276 271 262 259 267 267 267 272 274 278 280 276 273 276 278 279 278 278 276 274 272 269 266 264 264 265 264 262 261 261 264 267 270 271 272 273 273 274
227 225 228 230 231 234 238 241 244 246 248 248 248 247 246 248 250 250 247 245 243 242 243 245 246 246 244 242 245 248 249 252 255 258 259 256 252 252 252 253 254 257 262 267 271 273 273 274 273 271 273 279 286 292 294 296 303 307 300 285 278 269 269 278 275 273 272 271 277 278 270 268 275 277 275 276 277 274 271 270 268 268 268 270 274 277 277 274 271 269 268 271 274 276 276 277 276
224 226 227 228 229 232 237 241 244 245 245 248 252 253 249 248 250 250 249 246 242 240 241 243 243 243 244 246 249 253 255 258 261 265 264 258 253 251 251 253 255 257 261 268 273 276 276 277 277 277 279 283 286 290 294 295 297 302 301 291 280 273 279 288 286 280 276 273 274 271 265 267 271 271 271 272 273 274 273 272 272 271 271 272 275 278 279 280 279 277 275 273 275 278 280 281 280
224 225 227 229 229 232 237 241 247 250 251 252 255 254 250 249 250 250 250 249 245 241 240 242 244 246 249 254 257 257 260 263 262 261 259 256 254 253 255 258 261 261 262 267 274 277 278 279 280 281 283 284 285 286 289 293 295 296 294 286 278 278 283 289 289 284 278 272 267 264 265 269 269 269 273 272 271 274 275 275 275 274 274 274 276 279 279 277 278 281 280 276 274 276 278 281 281